LUSAT (LO-19)

Last updated on Mon Sep 15 2025 00:03:09 GMT+0000 (Coordinated Universal Time)

1 20442U 90005G 25257.30559902 .00000083 00000+0 46500-4 0 9999 2 20442 98.9010 266.3062 0010611 297.7357 62.2750 14.33989162862852
UTC large
Height (km)
Speed (km/s)
/
Latitude / Longitude
Inclination (degrees)
Orbital Period (minutes)
Azimuth
Elevation
Range (km)
Doppler Factor

Next 0 passes for location: London (51.5072 / 0.1276)

Sorry there are no passes over London.